PAVA

Details ICAO PAVA (VAK)
Name CHEVAK
Region USA (Alaska)
Timezone America/Nome (UTC-8.0)
Plans Departing 1
Arriving 1
Stats Elevation 75 ft / 23 m (AMSL)
Location 61.533845° -165.583873°
Runways 1
Magnetic Variation 9.703° E
Sunrise 2018-05-24 13:51:33 UTC / 2018-05-24 05:51:33 Local
Sunset 2018-05-25 08:09:45 UTC / 2018-05-25 00:09:45 Local
Advertisement - Login to hide

Runways

ID Width Length Bearing (true) Bearing (mag) Surface Threshold Offset Overrun Length
14 49 ft / 15 m 2,675 ft / 815 m 157.71° 148.01° Gravel 0 ft / 0 m 161 ft / 49 m
32 49 ft / 15 m 2,675 ft / 815 m 337.71° 328.01° Gravel 0 ft / 0 m 151 ft / 46 m

Map

Weather


0- 5 10 15 20 25 30 35+ Temperature / ° C

Clouds and Precipitation
Forecast for 2018-05-25 06:00 UTC. Updated 2 hours ago

Ground ~20,000 ft ~40,000 ft Winds

METAR

PAVA 250656Z AUTO 36019KT 10SM CLR 07/02 A2972 RMK AO2 SLP147 T00720022

TAF

Not found

Frequencies

Unicom 123.00 MHz CTAF
Unicom 122.80 MHz UNICOM
Warning: Do not use this data for real-world aviation or navigation. No guarantee of current accuracy is given.